This demonstration page uses our WeatherBlox Daily Observations layout. Learn more.

Left ArrowRight Arrow

Hourly Observations for February 1, 2022

Temp ( °F °C ) Dew Point ( °F °C ) Humidity (%) Winds ( mph kmh ) Pressure ( in mb ) Visibility ( mi km ) Precip ( " mm )
12:56 am 00:56 Clear 37 2.8 19 -7.2 48 48 NNW 12 19 29.82 1010 10 16 0.00 0.00
1:56 am 01:56 Clear 33 0.6 20 -6.7 58 58 NNW 8 13 29.85 1011 10 16 0.00 0.00
2:56 am 02:56 Clear 32 0 22 -5.6 66 66 NNW 9 15 29.88 1012 10 16 0.00 0.00
3:56 am 03:56 Clear 34 1.1 21 -6.1 59 59 NNW 16 26 29.89 1012 10 16 0.00 0.00
4:56 am 04:56 Clear 33 0.6 19 -7.2 56 56 NNW 13 20 29.91 1013 10 16 0.00 0.00
5:56 am 05:56 Clear 31 -0.6 19 -7.2 61 61 NNW 9 15 29.95 1014 10 16 0.00 0.00
6:56 am 06:56 Clear 28 -2.2 18 -7.8 66 66 NW 9 15 29.99 1016 10 16 0.00 0.00
7:56 am 07:56 Sunny 27 -2.8 18 -7.8 69 69 NNW 9 15 30.03 1017 10 16 0.00 0.00
8:56 am 08:56 Sunny 31 -0.6 18 -7.8 59 59 N 22 35 30.04 1017 10 16 0.00 0.00
9:56 am 09:56 Sunny 32 0 15 -9.4 50 50 N 25 41 30.07 1018 10 16 0.00 0.00
10:56 am 10:56 Sunny 33 0.6 15 -9.4 47 47 NNE 21 33 30.11 1020 10 16 0.00 0.00
11:56 am 11:56 Sunny 33 0.6 14 -10 45 45 NNE 21 33 30.13 1020 10 16 0.00 0.00
12:56 pm 12:56 Sunny 32 0 13 -10.6 45 45 N 23 37 30.11 1020 10 16 0.00 0.00
1:56 pm 13:56 Sunny 32 0 12 -11.1 43 43 N 22 35 30.10 1019 10 16 0.00 0.00
2:56 pm 14:56 Sunny 32 0 11 -11.7 41 41 N 22 35 30.11 1020 10 16 0.00 0.00
3:56 pm 15:56 Sunny 30 -1.1 10 -12.2 43 43 NNE 24 39 30.12 1020 10 16 0.00 0.00
4:56 pm 16:56 Sunny 28 -2.2 7 -13.9 41 41 NNE 21 33 30.15 1021 10 16 0.00 0.00
5:56 pm 17:56 Clear 24 -4.4 6 -14.4 46 46 NNE 16 26 30.18 1022 10 16 0.00 0.00
6:56 pm 18:56 Partly Cloudy 24 -4.4 6 -14.4 46 46 NNE 18 30 30.21 1023 10 16 0.00 0.00
7:56 pm 19:56 Cloudy 23 -5 3 -16.1 42 42 NNE 21 33 30.24 1024 10 16 0.00 0.00
8:56 pm 20:56 Cloudy 23 -5 4 -15.6 44 44 NNE 23 37 30.24 1024 10 16 0.00 0.00
9:56 pm 21:56 Cloudy 21 -6.1 0 -17.8 39 39 NNE 23 37 30.27 1025 10 16 0.00 0.00
10:56 pm 22:56 Cloudy 19 -7.2 0 -17.8 43 43 NNE 23 37 30.30 1026 10 16 0.00 0.00
11:56 pm 23:56 Cloudy 17 -8.3 0 -17.8 47 47 NNE 15 24 30.32 1027 10 16 0.00 0.00

Powered by AerisWeather